Paso Robles, CA

12:47 PM PST on December 05, 2019 (GMT -0800)
Paso Robles Municipal

Weather History for KPRB - October, 2019

Change the Weather History Date:

Saturday, October 12, 2019

  Actual Average Record
Temperature  
Mean Temperature 60 °F 63 °F  
Max Temperature 86 °F 81 °F 100 °F (1950)
Min Temperature 35 °F 45 °F 27 °F (2008)
Degree Days  
Heating Degree Days 4 3  
Month to date heating degree days 47 32  
Since 1 July heating degree days 73 64  
Cooling Degree Days 0 1  
Month to date cooling degree days 11 26  
Year to date cooling degree days 1046 917  
Growing Degree Days 10 (Base 50)    
Moisture  
Dew Point 17 °F    
Average Humidity 25    
Maximum Humidity 48    
Minimum Humidity 4    
Precipitation  
Precipitation 0.00 in 0.02 in 0.25 in (1972)
Month to date precipitation 0.00 0.16  
Year to date precipitation 11.28 9.28  
Sea Level Pressure  
Sea Level Pressure 29.89 in    
Wind  
Wind Speed 3 mph ()    
Max Wind Speed 15 mph    
Max Gust Speed 22 mph    
Visibility 10.0 miles    
Events      
T = Trace of Precipitation, MM = Missing Value Source: Averaged Metar Reports

Daily Weather History Graph

Daily Weather History Graph

Search for Another Location

Airport or City:

Astronomy

Oct. 12, 2019 Rise Set
Actual Time 7:06 AM PDT 6:31 PM PDT
Civil Twilight 6:40 AM PDT 6:56 PM PDT
Nautical Twilight 6:11 AM PDT 7:26 PM PDT
Astronomical Twilight 5:41 AM PDT 7:55 PM PDT
Moon 6:25 PM PDT (10/12) 5:53 AM PDT (10/12)
Length of Visible Light 12h 15m
Length of Day
11h 24m
Waxing Gibbous, 99% of the Moon is Illuminated
Oct 12
Waxing Gibbous
Oct 13
Full
Oct 21
Last Quarter
Oct 27
New
Nov 4
First Quarter

Hourly Weather History & Observations

Time (PDT) Temp. Dew Point Humidity Pressure Visibility Wind Dir Wind Speed Gust Speed Precip Events Conditions
12:53 AM 46.9 °F 17.1 °F 30% 29.95 in 10.0 mi NE 3.5 mph - N/A   Clear
1:53 AM 43.0 °F 12.9 °F 30% 29.95 in 10.0 mi Calm Calm - N/A   Clear
2:53 AM 42.1 °F 17.1 °F 37% 29.94 in 10.0 mi Calm Calm - N/A   Clear
3:53 AM 42.1 °F 19.0 °F 40% 29.93 in 10.0 mi Calm Calm - N/A   Clear
4:53 AM 39.9 °F 19.0 °F 43% 29.93 in 10.0 mi Calm Calm - N/A   Clear
5:53 AM 37.0 °F 19.0 °F 48% 29.93 in 10.0 mi Calm Calm - N/A   Clear
6:53 AM 37.9 °F 19.0 °F 47% 29.94 in 10.0 mi Calm Calm - N/A   Clear
7:53 AM 37.0 °F 17.1 °F 44% 29.95 in 10.0 mi Calm Calm - N/A   Clear
8:53 AM 45.0 °F 21.0 °F 39% 29.96 in 10.0 mi Calm Calm - N/A   Clear
9:53 AM 55.0 °F 21.9 °F 28% 29.96 in 10.0 mi Calm Calm - N/A   Clear
10:53 AM 63.0 °F 21.9 °F 21% 29.94 in 10.0 mi Variable 3.5 mph - N/A   Clear
11:53 AM 71.1 °F 21.9 °F 16% 29.92 in 10.0 mi WSW 4.6 mph - N/A   Clear
12:53 PM 78.1 °F 21.0 °F 12% 29.88 in 10.0 mi West 3.5 mph - N/A   Clear
1:53 PM 84.0 °F 6.1 °F 5% 29.85 in 10.0 mi East 6.9 mph - N/A   Clear
2:53 PM 84.9 °F 3.9 °F 5% 29.83 in 10.0 mi ENE 13.8 mph - N/A   Clear
3:53 PM 84.9 °F 7.0 °F 5% 29.82 in 10.0 mi ENE 11.5 mph - N/A   Clear
4:53 PM 84.9 °F 7.0 °F 5% 29.81 in 10.0 mi NE 12.7 mph - N/A   Clear
5:53 PM 81.0 °F 7.0 °F 6% 29.81 in 10.0 mi East 9.2 mph - N/A   Clear
6:53 PM 71.1 °F 23.0 °F 16% 29.83 in 10.0 mi South 10.4 mph - N/A   Clear
7:53 PM 66.0 °F 21.9 °F 19% 29.84 in 10.0 mi South 5.8 mph - N/A   Clear
8:53 PM 57.0 °F 21.9 °F 26% 29.86 in 10.0 mi Calm Calm - N/A   Clear
9:53 PM 54.0 °F 19.0 °F 25% 29.87 in 10.0 mi West 3.5 mph - N/A   Clear
10:53 PM 51.1 °F 19.0 °F 28% 29.88 in 10.0 mi ESE 3.5 mph - N/A   Clear
11:53 PM 46.9 °F 18.0 °F 32% 29.88 in 10.0 mi Calm Calm - N/A   Clear